Year,Month,Day,Hour,Minute,Value (Times are PST for temperature in C)
2016,08,24,00,00,14.00
2016,08,24,00,01,14.00
2016,08,24,00,02,14.00
2016,08,24,00,03,14.00
2016,08,24,00,04,14.00
2016,08,24,00,05,14.00
2016,08,24,00,06,14.00
2016,08,24,00,07,14.00
2016,08,24,00,08,14.00
2016,08,24,00,09,13.90
2016,08,24,00,10,13.90
2016,08,24,00,11,13.90
2016,08,24,00,12,13.90
2016,08,24,00,13,13.90
2016,08,24,00,14,13.90
2016,08,24,00,15,13.90
2016,08,24,00,16,13.90
2016,08,24,00,17,13.90
2016,08,24,00,18,13.90
2016,08,24,00,19,13.90
2016,08,24,00,20,13.90
2016,08,24,00,21,13.90
2016,08,24,00,22,13.90
2016,08,24,00,23,13.90
2016,08,24,00,24,13.90
2016,08,24,00,25,13.90
2016,08,24,00,26,13.90
2016,08,24,00,27,13.90
2016,08,24,00,28,13.90
2016,08,24,00,29,13.90
2016,08,24,00,30,13.90
2016,08,24,00,31,13.90
2016,08,24,00,32,13.90
2016,08,24,00,33,13.90
2016,08,24,00,34,13.80
2016,08,24,00,35,13.80
2016,08,24,00,36,13.80
2016,08,24,00,37,13.90
2016,08,24,00,38,13.90
2016,08,24,00,39,13.90
2016,08,24,00,40,13.80
2016,08,24,00,41,13.80
2016,08,24,00,42,13.80
2016,08,24,00,43,13.80
2016,08,24,00,44,13.80
2016,08,24,00,45,13.80
2016,08,24,00,46,13.80
2016,08,24,00,47,13.80
2016,08,24,00,48,13.70
2016,08,24,00,49,13.70
2016,08,24,00,50,13.70
2016,08,24,00,51,13.70
2016,08,24,00,52,13.70
2016,08,24,00,53,13.70
2016,08,24,00,54,13.60
2016,08,24,00,55,13.60
2016,08,24,00,56,13.60
2016,08,24,00,57,13.60
2016,08,24,00,58,13.60
2016,08,24,00,59,13.50
2016,08,24,01,00,13.50
2016,08,24,01,01,13.50
2016,08,24,01,02,13.50
2016,08,24,01,03,13.50
2016,08,24,01,04,13.50
2016,08,24,01,05,13.50
2016,08,24,01,06,13.50
2016,08,24,01,07,13.50
2016,08,24,01,08,13.50
2016,08,24,01,09,13.50
2016,08,24,01,10,13.50
2016,08,24,01,11,13.50
2016,08,24,01,12,13.50
2016,08,24,01,13,13.50
2016,08,24,01,14,13.50
2016,08,24,01,15,13.50
2016,08,24,01,16,13.50
2016,08,24,01,17,13.50
2016,08,24,01,18,13.50
2016,08,24,01,19,13.40
2016,08,24,01,20,13.40
2016,08,24,01,21,13.40
2016,08,24,01,22,13.40
2016,08,24,01,23,13.40
2016,08,24,01,24,13.30
2016,08,24,01,25,13.30
2016,08,24,01,26,13.30
2016,08,24,01,27,13.30
2016,08,24,01,28,13.30
2016,08,24,01,29,13.30
2016,08,24,01,30,13.30
2016,08,24,01,31,13.30
2016,08,24,01,32,13.30
2016,08,24,01,33,13.30
2016,08,24,01,34,13.30
2016,08,24,01,35,13.30
2016,08,24,01,36,13.30
2016,08,24,01,37,13.30
2016,08,24,01,38,13.30
2016,08,24,01,39,13.30
2016,08,24,01,40,13.30
2016,08,24,01,41,13.30
2016,08,24,01,42,13.30
2016,08,24,01,43,13.30
2016,08,24,01,44,13.30
2016,08,24,01,45,13.30
2016,08,24,01,46,13.30
2016,08,24,01,47,13.30
2016,08,24,01,48,13.30
2016,08,24,01,49,13.30
2016,08,24,01,50,13.30
2016,08,24,01,51,13.30
2016,08,24,01,52,13.30
2016,08,24,01,53,13.30
2016,08,24,01,54,13.30
2016,08,24,01,55,13.30
2016,08,24,01,56,13.30
2016,08,24,01,57,13.30
2016,08,24,01,58,13.30
2016,08,24,01,59,13.30
2016,08,24,02,00,13.30
2016,08,24,02,01,13.30
2016,08,24,02,02,13.20
2016,08,24,02,03,13.20
2016,08,24,02,04,13.20
2016,08,24,02,05,13.20
2016,08,24,02,06,13.20
2016,08,24,02,07,13.10
2016,08,24,02,08,13.10
2016,08,24,02,09,13.00
2016,08,24,02,10,13.00
2016,08,24,02,11,13.00
2016,08,24,02,12,12.90
2016,08,24,02,13,12.90
2016,08,24,02,14,12.90
2016,08,24,02,15,12.90
2016,08,24,02,16,12.90
2016,08,24,02,17,12.90
2016,08,24,02,18,12.90
2016,08,24,02,19,12.80
2016,08,24,02,20,12.80
2016,08,24,02,21,12.80
2016,08,24,02,22,12.80
2016,08,24,02,23,12.80
2016,08,24,02,24,12.80
2016,08,24,02,25,12.80
2016,08,24,02,26,12.80
2016,08,24,02,27,12.80
2016,08,24,02,28,12.90
2016,08,24,02,29,12.90
2016,08,24,02,30,12.90
2016,08,24,02,31,12.90
2016,08,24,02,32,12.90
2016,08,24,02,33,12.90
2016,08,24,02,34,12.90
2016,08,24,02,35,12.90
2016,08,24,02,36,12.90
2016,08,24,02,37,12.90
2016,08,24,02,38,12.80
2016,08,24,02,39,12.80
2016,08,24,02,40,12.80
2016,08,24,02,41,12.80
2016,08,24,02,42,12.80
2016,08,24,02,43,12.70
2016,08,24,02,44,12.70
2016,08,24,02,45,12.70
2016,08,24,02,46,12.70
2016,08,24,02,47,12.80
2016,08,24,02,48,12.80
2016,08,24,02,49,12.80
2016,08,24,02,50,12.80
2016,08,24,02,51,12.80
2016,08,24,02,52,12.80
2016,08,24,02,53,12.80
2016,08,24,02,54,12.80
2016,08,24,02,55,12.80
2016,08,24,02,56,12.80
2016,08,24,02,57,12.80
2016,08,24,02,58,12.80
2016,08,24,02,59,12.80
2016,08,24,03,00,12.80
2016,08,24,03,01,12.80
2016,08,24,03,02,12.90
2016,08,24,03,03,12.90
2016,08,24,03,04,12.90
2016,08,24,03,05,12.90
2016,08,24,03,06,12.90
2016,08,24,03,07,12.90
2016,08,24,03,08,12.90
2016,08,24,03,09,12.90
2016,08,24,03,10,13.00
2016,08,24,03,11,13.10
2016,08,24,03,12,13.10
2016,08,24,03,13,13.10
2016,08,24,03,14,13.10
2016,08,24,03,15,13.20
2016,08,24,03,16,13.20
2016,08,24,03,17,13.30
2016,08,24,03,18,13.30
2016,08,24,03,19,13.30
2016,08,24,03,20,13.30
2016,08,24,03,21,13.20
2016,08,24,03,22,13.20
2016,08,24,03,23,13.20
2016,08,24,03,24,13.10
2016,08,24,03,25,13.10
2016,08,24,03,26,13.10
2016,08,24,03,27,13.00
2016,08,24,03,28,13.00
2016,08,24,03,29,13.00
2016,08,24,03,30,13.00
2016,08,24,03,31,13.00
2016,08,24,03,32,12.90
2016,08,24,03,33,12.90
2016,08,24,03,34,12.90
2016,08,24,03,35,12.90
2016,08,24,03,36,12.90
2016,08,24,03,37,12.90
2016,08,24,03,38,12.90
2016,08,24,03,39,12.90
2016,08,24,03,40,12.90
2016,08,24,03,41,12.90
2016,08,24,03,42,12.90
2016,08,24,03,43,12.90
2016,08,24,03,44,12.90
2016,08,24,03,45,12.90
2016,08,24,03,46,13.00
2016,08,24,03,47,13.00
2016,08,24,03,48,13.10
2016,08,24,03,49,13.10
2016,08,24,03,50,13.10
2016,08,24,03,51,13.00
2016,08,24,03,52,13.00
2016,08,24,03,53,13.00
2016,08,24,03,54,13.00
2016,08,24,03,55,12.90
2016,08,24,03,56,12.90
2016,08,24,03,57,12.90
2016,08,24,03,58,13.00
2016,08,24,03,59,13.00
2016,08,24,04,00,13.00
2016,08,24,04,01,13.00
2016,08,24,04,02,13.00
2016,08,24,04,03,13.00
2016,08,24,04,04,12.90
2016,08,24,04,05,12.90
2016,08,24,04,06,12.90
2016,08,24,04,07,12.90
2016,08,24,04,08,12.80
2016,08,24,04,09,12.80
2016,08,24,04,10,12.80
2016,08,24,04,11,12.80
2016,08,24,04,12,12.80
2016,08,24,04,13,12.80
2016,08,24,04,14,12.70
2016,08,24,04,15,12.70
2016,08,24,04,16,12.70
2016,08,24,04,17,12.70
2016,08,24,04,18,12.70
2016,08,24,04,19,12.70
2016,08,24,04,20,12.70
2016,08,24,04,21,12.70
2016,08,24,04,22,12.70
2016,08,24,04,23,12.70
2016,08,24,04,24,12.80
2016,08,24,04,25,12.80
2016,08,24,04,26,12.80
2016,08,24,04,27,12.70
2016,08,24,04,28,12.70
2016,08,24,04,29,12.70
2016,08,24,04,30,12.70
2016,08,24,04,31,12.70
2016,08,24,04,32,12.70
2016,08,24,04,33,12.70
2016,08,24,04,34,12.70
2016,08,24,04,35,12.70
2016,08,24,04,36,12.70
2016,08,24,04,37,12.70
2016,08,24,04,38,12.70
2016,08,24,04,39,12.70
2016,08,24,04,40,12.70
2016,08,24,04,41,12.70
2016,08,24,04,42,12.70
2016,08,24,04,43,12.70
2016,08,24,04,44,12.60
2016,08,24,04,45,12.60
2016,08,24,04,46,12.60
2016,08,24,04,47,12.60
2016,08,24,04,48,12.70
2016,08,24,04,49,12.70
2016,08,24,04,50,12.70
2016,08,24,04,51,12.70
2016,08,24,04,52,12.70
2016,08,24,04,53,12.70
2016,08,24,04,54,12.70
2016,08,24,04,55,12.70
2016,08,24,04,56,12.60
2016,08,24,04,57,12.60
2016,08,24,04,58,12.60
2016,08,24,04,59,12.50
2016,08,24,05,00,12.50
2016,08,24,05,01,12.50
2016,08,24,05,02,12.50
2016,08,24,05,03,12.50
2016,08,24,05,04,12.50
2016,08,24,05,05,12.50
2016,08,24,05,06,12.50
2016,08,24,05,07,12.50
2016,08,24,05,08,12.50
2016,08,24,05,09,12.50
2016,08,24,05,10,12.50
2016,08,24,05,11,12.40
2016,08,24,05,12,12.40
2016,08,24,05,13,12.40
2016,08,24,05,14,12.40
2016,08,24,05,15,12.30
2016,08,24,05,16,12.30
2016,08,24,05,17,12.30
2016,08,24,05,18,12.30
2016,08,24,05,19,12.30
2016,08,24,05,20,12.30
2016,08,24,05,21,12.30
2016,08,24,05,22,12.30
2016,08,24,05,23,12.30
2016,08,24,05,24,12.30
2016,08,24,05,25,12.30
2016,08,24,05,26,12.30
2016,08,24,05,27,12.30
2016,08,24,05,28,12.30
2016,08,24,05,29,12.30
2016,08,24,05,30,12.30
2016,08,24,05,31,12.30
2016,08,24,05,32,12.30
2016,08,24,05,33,12.30
2016,08,24,05,34,12.30
2016,08,24,05,35,12.30
2016,08,24,05,36,12.30
2016,08,24,05,37,12.30
2016,08,24,05,38,12.20
2016,08,24,05,39,12.20
2016,08,24,05,40,12.20
2016,08,24,05,41,12.20
2016,08,24,05,42,12.10
2016,08,24,05,43,12.20
2016,08,24,05,44,12.20
2016,08,24,05,45,12.20
2016,08,24,05,46,12.30
2016,08,24,05,47,12.30
2016,08,24,05,48,12.30
2016,08,24,05,49,12.20
2016,08,24,05,50,12.20
2016,08,24,05,51,12.20
2016,08,24,05,52,12.20
2016,08,24,05,53,12.20
2016,08,24,05,54,12.30
2016,08,24,05,55,12.30
2016,08,24,05,56,12.30
2016,08,24,05,57,12.30
2016,08,24,05,58,12.30
2016,08,24,05,59,12.30
2016,08,24,06,00,12.30
2016,08,24,06,01,12.30
2016,08,24,06,02,12.30
2016,08,24,06,03,12.30
2016,08,24,06,04,12.30
2016,08,24,06,05,12.30
2016,08,24,06,06,12.30
2016,08,24,06,07,12.30
2016,08,24,06,08,12.30
2016,08,24,06,09,12.30
2016,08,24,06,10,12.30
2016,08,24,06,11,12.30
2016,08,24,06,12,12.30
2016,08,24,06,13,12.30
2016,08,24,06,14,12.30
2016,08,24,06,15,12.20
2016,08,24,06,16,12.20
2016,08,24,06,17,12.20
2016,08,24,06,18,12.20
2016,08,24,06,19,12.20
2016,08,24,06,20,12.20
2016,08,24,06,21,12.20
2016,08,24,06,22,12.30
2016,08,24,06,23,12.40
2016,08,24,06,24,12.40
2016,08,24,06,25,12.40
2016,08,24,06,26,12.40
2016,08,24,06,27,12.40
2016,08,24,06,28,12.30
2016,08,24,06,29,12.30
2016,08,24,06,30,12.30
2016,08,24,06,31,12.30
2016,08,24,06,32,12.30
2016,08,24,06,33,12.30
2016,08,24,06,34,12.30
2016,08,24,06,35,12.40
2016,08,24,06,36,12.40
2016,08,24,06,37,12.40
2016,08,24,06,38,12.40
2016,08,24,06,39,12.40
2016,08,24,06,40,12.50
2016,08,24,06,41,12.50
2016,08,24,06,42,12.50
2016,08,24,06,43,12.40
2016,08,24,06,44,12.50
2016,08,24,06,45,12.50
2016,08,24,06,46,12.50
2016,08,24,06,47,12.50
2016,08,24,06,48,12.60
2016,08,24,06,49,12.60
2016,08,24,06,50,12.70
2016,08,24,06,51,12.70
2016,08,24,06,52,12.70
2016,08,24,06,53,12.70
2016,08,24,06,54,12.70
2016,08,24,06,55,12.70
2016,08,24,06,56,12.70
2016,08,24,06,57,12.70
2016,08,24,06,58,12.70
2016,08,24,06,59,12.70
2016,08,24,07,00,12.70
2016,08,24,07,01,12.80
2016,08,24,07,02,12.80
2016,08,24,07,03,12.90
2016,08,24,07,04,13.00
2016,08,24,07,05,13.00
2016,08,24,07,06,13.10
2016,08,24,07,07,13.10
2016,08,24,07,08,13.20
2016,08,24,07,09,13.20
2016,08,24,07,10,13.30
2016,08,24,07,11,13.30
2016,08,24,07,12,13.30
2016,08,24,07,13,13.30
2016,08,24,07,14,13.40
2016,08,24,07,15,13.40
2016,08,24,07,16,13.50
2016,08,24,07,17,13.50
2016,08,24,07,18,13.50
2016,08,24,07,19,13.60
2016,08,24,07,20,13.60
2016,08,24,07,21,13.70
2016,08,24,07,22,13.70
2016,08,24,07,23,13.70
2016,08,24,07,24,13.70
2016,08,24,07,25,13.80
2016,08,24,07,26,13.80
2016,08,24,07,27,13.90
2016,08,24,07,28,13.90
2016,08,24,07,29,14.00
2016,08,24,07,30,14.00
2016,08,24,07,31,14.10
2016,08,24,07,32,14.20
2016,08,24,07,33,14.20
2016,08,24,07,34,14.20
2016,08,24,07,35,14.30
2016,08,24,07,36,14.30
2016,08,24,07,37,14.40
2016,08,24,07,38,14.50
2016,08,24,07,39,14.50
2016,08,24,07,40,14.60
2016,08,24,07,41,14.70
2016,08,24,07,42,14.80
2016,08,24,07,43,14.80
2016,08,24,07,44,14.80
2016,08,24,07,45,14.90
2016,08,24,07,46,15.00
2016,08,24,07,47,15.00
2016,08,24,07,48,15.10
2016,08,24,07,49,15.20
2016,08,24,07,50,15.20
2016,08,24,07,51,15.30
2016,08,24,07,52,15.30
2016,08,24,07,53,15.40
2016,08,24,07,54,15.50
2016,08,24,07,55,15.50
2016,08,24,07,56,15.60
2016,08,24,07,57,15.70
2016,08,24,07,58,15.70
2016,08,24,07,59,15.80
2016,08,24,08,00,15.80
2016,08,24,08,01,15.90
2016,08,24,08,02,16.00
2016,08,24,08,03,16.10
2016,08,24,08,04,16.20
2016,08,24,08,05,16.30
2016,08,24,08,06,16.30
2016,08,24,08,07,16.40
2016,08,24,08,08,16.50
2016,08,24,08,09,16.60
2016,08,24,08,10,16.70
2016,08,24,08,11,16.70
2016,08,24,08,12,16.80
2016,08,24,08,13,16.80
2016,08,24,08,14,16.90
2016,08,24,08,15,17.00
2016,08,24,08,16,17.10
2016,08,24,08,17,17.20
2016,08,24,08,18,17.30
2016,08,24,08,19,17.40
2016,08,24,08,20,17.50
2016,08,24,08,21,17.70
2016,08,24,08,22,17.80
2016,08,24,08,23,17.90
2016,08,24,08,24,18.00
2016,08,24,08,25,18.20
2016,08,24,08,26,18.30
2016,08,24,08,27,18.30
2016,08,24,08,28,18.40
2016,08,24,08,29,18.50
2016,08,24,08,30,18.50
2016,08,24,08,31,18.60
2016,08,24,08,32,18.60
2016,08,24,08,33,18.70
2016,08,24,08,34,18.80
2016,08,24,08,35,18.90
2016,08,24,08,36,18.90
2016,08,24,08,37,19.00
2016,08,24,08,38,19.10
2016,08,24,08,39,19.10
2016,08,24,08,40,19.10
2016,08,24,08,41,19.20
2016,08,24,08,42,19.20
2016,08,24,08,43,19.30
2016,08,24,08,44,19.40
2016,08,24,08,45,19.40
2016,08,24,08,46,19.50
2016,08,24,08,47,19.50
2016,08,24,08,48,19.50
2016,08,24,08,49,19.50
2016,08,24,08,50,19.50
2016,08,24,08,51,19.50
2016,08,24,08,52,19.50
2016,08,24,08,53,19.60
2016,08,24,08,54,19.60
2016,08,24,08,55,19.60
2016,08,24,08,56,19.60
2016,08,24,08,57,19.60
2016,08,24,08,58,19.70
2016,08,24,08,59,19.70
2016,08,24,09,00,19.70
2016,08,24,09,01,19.80
2016,08,24,09,02,19.80
2016,08,24,09,03,19.80
2016,08,24,09,04,19.80
2016,08,24,09,05,19.90
2016,08,24,09,06,20.00
2016,08,24,09,07,20.10
2016,08,24,09,08,20.20
2016,08,24,09,09,20.20
2016,08,24,09,10,20.30
2016,08,24,09,11,20.40
2016,08,24,09,12,20.50
2016,08,24,09,13,20.60
2016,08,24,09,14,20.70
2016,08,24,09,15,20.80
2016,08,24,09,16,20.90
2016,08,24,09,17,21.00
2016,08,24,09,18,21.10
2016,08,24,09,19,21.20
2016,08,24,09,20,21.30
2016,08,24,09,21,21.40
2016,08,24,09,22,21.50
2016,08,24,09,23,21.60
2016,08,24,09,24,21.70
2016,08,24,09,25,21.80
2016,08,24,09,26,21.90
2016,08,24,09,27,22.00
2016,08,24,09,28,22.00
2016,08,24,09,29,22.10
2016,08,24,09,30,22.10
2016,08,24,09,31,22.10
2016,08,24,09,32,22.10
2016,08,24,09,33,22.10
2016,08,24,09,34,22.10
2016,08,24,09,35,22.10
2016,08,24,09,36,22.10
2016,08,24,09,37,22.00
2016,08,24,09,38,22.00
2016,08,24,09,39,21.90
2016,08,24,09,40,21.90
2016,08,24,09,41,21.90
2016,08,24,09,42,21.80
2016,08,24,09,43,21.90
2016,08,24,09,44,21.90
2016,08,24,09,45,22.00
2016,08,24,09,46,22.00
2016,08,24,09,47,22.00
2016,08,24,09,48,22.00
2016,08,24,09,49,21.90
2016,08,24,09,50,21.90
2016,08,24,09,51,21.90
2016,08,24,09,52,21.90
2016,08,24,09,53,22.00
2016,08,24,09,54,22.00
2016,08,24,09,55,22.00
2016,08,24,09,56,22.10
2016,08,24,09,57,22.10
2016,08,24,09,58,22.10
2016,08,24,09,59,22.10
2016,08,24,10,00,22.20
2016,08,24,10,01,22.20
2016,08,24,10,02,22.20
2016,08,24,10,03,22.20
2016,08,24,10,04,22.20
2016,08,24,10,05,22.20
2016,08,24,10,06,22.20
2016,08,24,10,07,22.20
2016,08,24,10,08,22.30
2016,08,24,10,09,22.40
2016,08,24,10,10,22.50
2016,08,24,10,11,22.60
2016,08,24,10,12,22.60
2016,08,24,10,13,22.70
2016,08,24,10,14,22.80
2016,08,24,10,15,22.80
2016,08,24,10,16,22.90
2016,08,24,10,17,22.90
2016,08,24,10,18,22.90
2016,08,24,10,19,22.90
2016,08,24,10,20,23.00
2016,08,24,10,21,23.10
2016,08,24,10,22,23.20
2016,08,24,10,23,23.20
2016,08,24,10,24,23.20
2016,08,24,10,25,23.20
2016,08,24,10,26,23.20
2016,08,24,10,27,23.20
2016,08,24,10,28,23.30
2016,08,24,10,29,23.30
2016,08,24,10,30,23.30
2016,08,24,10,31,23.30
2016,08,24,10,32,23.30
2016,08,24,10,33,23.30
2016,08,24,10,34,23.30
2016,08,24,10,35,23.30
2016,08,24,10,36,23.30
2016,08,24,10,37,23.30
2016,08,24,10,38,23.30
2016,08,24,10,39,23.30
2016,08,24,10,40,23.30
2016,08,24,10,41,23.30
2016,08,24,10,42,23.20
2016,08,24,10,43,23.20
2016,08,24,10,44,23.20
2016,08,24,10,45,23.20
2016,08,24,10,46,23.20
2016,08,24,10,47,23.20
2016,08,24,10,48,23.20
2016,08,24,10,49,23.20
2016,08,24,10,50,23.20
2016,08,24,10,51,23.20
2016,08,24,10,52,23.20
2016,08,24,10,53,23.20
2016,08,24,10,54,23.20
2016,08,24,10,55,23.30
2016,08,24,10,56,23.30
2016,08,24,10,57,23.30
2016,08,24,10,58,23.40
2016,08,24,10,59,23.50
2016,08,24,11,00,23.60
2016,08,24,11,01,23.70
2016,08,24,11,02,23.70
2016,08,24,11,03,23.80
2016,08,24,11,04,23.80
2016,08,24,11,05,23.80
2016,08,24,11,06,23.90
2016,08,24,11,07,23.90
2016,08,24,11,08,23.90
2016,08,24,11,09,23.90
2016,08,24,11,10,24.00
2016,08,24,11,11,24.10
2016,08,24,11,12,24.10
2016,08,24,11,13,24.10
2016,08,24,11,14,24.00
2016,08,24,11,15,23.90
2016,08,24,11,16,23.80
2016,08,24,11,17,23.80
2016,08,24,11,18,23.80
2016,08,24,11,19,23.90
2016,08,24,11,20,23.90
2016,08,24,11,21,24.00
2016,08,24,11,22,24.10
2016,08,24,11,23,24.10
2016,08,24,11,24,24.10
2016,08,24,11,25,24.10
2016,08,24,11,26,24.10
2016,08,24,11,27,24.10
2016,08,24,11,28,24.10
2016,08,24,11,29,24.10
2016,08,24,11,30,24.20
2016,08,24,11,31,24.20
2016,08,24,11,32,24.30
2016,08,24,11,33,24.30
2016,08,24,11,34,24.30
2016,08,24,11,35,24.40
2016,08,24,11,36,24.40
2016,08,24,11,37,24.30
2016,08,24,11,38,24.30
2016,08,24,11,39,24.30
2016,08,24,11,40,24.30
2016,08,24,11,41,24.30
2016,08,24,11,42,24.40
2016,08,24,11,43,24.40
2016,08,24,11,44,24.40
2016,08,24,11,45,24.40
2016,08,24,11,46,24.40
2016,08,24,11,47,24.40
2016,08,24,11,48,24.40
2016,08,24,11,49,24.40
2016,08,24,11,50,24.30
2016,08,24,11,51,24.30
2016,08,24,11,52,24.30
2016,08,24,11,53,24.30
2016,08,24,11,54,24.30
2016,08,24,11,55,24.30
2016,08,24,11,56,24.30
2016,08,24,11,57,24.30
2016,08,24,11,58,24.40
2016,08,24,11,59,24.40
2016,08,24,12,00,24.50
2016,08,24,12,01,24.50
2016,08,24,12,02,24.50
2016,08,24,12,03,24.60
2016,08,24,12,04,24.60
2016,08,24,12,05,24.60
2016,08,24,12,06,24.60
2016,08,24,12,07,24.60
2016,08,24,12,08,24.70
2016,08,24,12,09,24.70
2016,08,24,12,10,24.80
2016,08,24,12,11,24.90
2016,08,24,12,12,25.10
2016,08,24,12,13,25.20
2016,08,24,12,14,25.20
2016,08,24,12,15,25.20
2016,08,24,12,16,25.20
2016,08,24,12,17,25.30
2016,08,24,12,18,25.30
2016,08,24,12,19,25.40
2016,08,24,12,20,25.40
2016,08,24,12,21,25.40
2016,08,24,12,22,25.30
2016,08,24,12,23,25.20
2016,08,24,12,24,25.10
2016,08,24,12,25,25.00
2016,08,24,12,26,24.90
2016,08,24,12,27,24.90
2016,08,24,12,28,24.90
2016,08,24,12,29,24.90
2016,08,24,12,30,24.90
2016,08,24,12,31,24.90
2016,08,24,12,32,25.00
2016,08,24,12,33,25.10
2016,08,24,12,34,25.10
2016,08,24,12,35,25.10
2016,08,24,12,36,25.00
2016,08,24,12,37,25.00
2016,08,24,12,38,25.10
2016,08,24,12,39,25.20
2016,08,24,12,40,25.20
2016,08,24,12,41,25.30
2016,08,24,12,42,25.40
2016,08,24,12,43,25.40
2016,08,24,12,44,25.40
2016,08,24,12,45,25.40
2016,08,24,12,46,25.50
2016,08,24,12,47,25.60
2016,08,24,12,48,25.70
2016,08,24,12,49,25.70
2016,08,24,12,50,25.80
2016,08,24,12,51,25.90
2016,08,24,12,52,25.90
2016,08,24,12,53,26.00
2016,08,24,12,54,26.10
2016,08,24,12,55,26.10
2016,08,24,12,56,26.20
2016,08,24,12,57,26.20
2016,08,24,12,58,26.20
2016,08,24,12,59,26.20
2016,08,24,13,00,26.10
2016,08,24,13,01,26.00
2016,08,24,13,02,26.00
2016,08,24,13,03,25.90
2016,08,24,13,04,25.90
2016,08,24,13,05,25.80
2016,08,24,13,06,25.80
2016,08,24,13,07,25.70
2016,08,24,13,08,25.70
2016,08,24,13,09,25.60
2016,08,24,13,10,25.60
2016,08,24,13,11,25.60
2016,08,24,13,12,25.60
2016,08,24,13,13,25.60
2016,08,24,13,14,25.60
2016,08,24,13,15,25.60
2016,08,24,13,16,25.60
2016,08,24,13,17,25.60
2016,08,24,13,18,25.70
2016,08,24,13,19,25.70
2016,08,24,13,20,25.70
2016,08,24,13,21,25.80
2016,08,24,13,22,25.80
2016,08,24,13,23,25.80
2016,08,24,13,24,25.80
2016,08,24,13,25,25.80
2016,08,24,13,26,25.90
2016,08,24,13,27,25.90
2016,08,24,13,28,25.90
2016,08,24,13,29,25.90
2016,08,24,13,30,25.90
2016,08,24,13,31,25.90
2016,08,24,13,32,25.90
2016,08,24,13,33,25.90
2016,08,24,13,34,25.90
2016,08,24,13,35,25.80
2016,08,24,13,36,25.70
2016,08,24,13,37,25.70
2016,08,24,13,38,25.70
2016,08,24,13,39,25.70
2016,08,24,13,40,25.70
2016,08,24,13,41,25.70
2016,08,24,13,42,25.70
2016,08,24,13,43,25.70
2016,08,24,13,44,25.80
2016,08,24,13,45,25.80
2016,08,24,13,46,25.80
2016,08,24,13,47,25.90
2016,08,24,13,48,25.90
2016,08,24,13,49,26.00
2016,08,24,13,50,26.00
2016,08,24,13,51,26.00
2016,08,24,13,52,26.10
2016,08,24,13,53,26.10
2016,08,24,13,54,26.10
2016,08,24,13,55,26.10
2016,08,24,13,56,26.10
2016,08,24,13,57,26.20
2016,08,24,13,58,26.20
2016,08,24,13,59,26.20
2016,08,24,14,00,26.30
2016,08,24,14,01,26.40
2016,08,24,14,02,26.40
2016,08,24,14,03,26.50
2016,08,24,14,04,26.60
2016,08,24,14,05,26.60
2016,08,24,14,06,26.60
2016,08,24,14,07,26.60
2016,08,24,14,08,26.60
2016,08,24,14,09,26.60
2016,08,24,14,10,26.60
2016,08,24,14,11,26.60
2016,08,24,14,12,26.60
2016,08,24,14,13,26.60
2016,08,24,14,14,26.60
2016,08,24,14,15,26.60
2016,08,24,14,16,26.60
2016,08,24,14,17,26.70
2016,08,24,14,18,26.70
2016,08,24,14,19,26.70
2016,08,24,14,20,26.70
2016,08,24,14,21,26.80
2016,08,24,14,22,26.80
2016,08,24,14,23,26.90
2016,08,24,14,24,26.90
2016,08,24,14,25,27.00
2016,08,24,14,26,27.10
2016,08,24,14,27,27.10
2016,08,24,14,28,27.10
2016,08,24,14,29,27.20
2016,08,24,14,30,27.20
2016,08,24,14,31,27.30
2016,08,24,14,32,27.30
2016,08,24,14,33,27.30
2016,08,24,14,34,27.30
2016,08,24,14,35,27.30
2016,08,24,14,36,27.40
2016,08,24,14,37,27.40
2016,08,24,14,38,27.50
2016,08,24,14,39,27.60
2016,08,24,14,40,27.60
2016,08,24,14,41,27.70
2016,08,24,14,42,27.70
2016,08,24,14,43,27.80
2016,08,24,14,44,27.80
2016,08,24,14,45,27.80
2016,08,24,14,46,27.90
2016,08,24,14,47,27.90
2016,08,24,14,48,27.90
2016,08,24,14,49,27.90
2016,08,24,14,50,27.90
2016,08,24,14,51,28.00
2016,08,24,14,52,28.00
2016,08,24,14,53,28.00
2016,08,24,14,54,28.00
2016,08,24,14,55,28.10
2016,08,24,14,56,28.10
2016,08,24,14,57,28.20
2016,08,24,14,58,28.20
2016,08,24,14,59,28.30
2016,08,24,15,00,28.40
2016,08,24,15,01,28.40
2016,08,24,15,02,28.10
2016,08,24,15,03,27.70
2016,08,24,15,04,27.60
2016,08,24,15,05,27.50
2016,08,24,15,06,27.40
2016,08,24,15,07,27.40
2016,08,24,15,08,27.50
2016,08,24,15,09,27.50
2016,08,24,15,10,27.40
2016,08,24,15,11,27.40
2016,08,24,15,12,27.30
2016,08,24,15,13,27.30
2016,08,24,15,14,27.30
2016,08,24,15,15,27.30
2016,08,24,15,16,27.30
2016,08,24,15,17,27.20
2016,08,24,15,18,27.20
2016,08,24,15,19,27.20
2016,08,24,15,20,27.20
2016,08,24,15,21,27.20
2016,08,24,15,22,27.20
2016,08,24,15,23,27.10
2016,08,24,15,24,26.80
2016,08,24,15,25,26.70
2016,08,24,15,26,26.60
2016,08,24,15,27,26.60
2016,08,24,15,28,26.60
2016,08,24,15,29,26.50
2016,08,24,15,30,26.40
2016,08,24,15,31,26.40
2016,08,24,15,32,26.30
2016,08,24,15,33,26.30
2016,08,24,15,34,26.20
2016,08,24,15,35,26.20
2016,08,24,15,36,26.20
2016,08,24,15,37,26.20
2016,08,24,15,38,26.20
2016,08,24,15,39,26.30
2016,08,24,15,40,26.30
2016,08,24,15,41,26.30
2016,08,24,15,42,26.30
2016,08,24,15,43,26.30
2016,08,24,15,44,26.30
2016,08,24,15,45,26.30
2016,08,24,15,46,26.20
2016,08,24,15,47,26.20
2016,08,24,15,48,26.10
2016,08,24,15,49,26.00
2016,08,24,15,50,25.90
2016,08,24,15,51,26.00
2016,08,24,15,52,26.00
2016,08,24,15,53,26.00
2016,08,24,15,54,26.10
2016,08,24,15,55,26.20
2016,08,24,15,56,26.30
2016,08,24,15,57,26.40
2016,08,24,15,58,26.40
2016,08,24,15,59,26.40
2016,08,24,16,00,26.40
2016,08,24,16,01,26.40
2016,08,24,16,02,26.40
2016,08,24,16,03,26.40
2016,08,24,16,04,26.50
2016,08,24,16,05,26.60
2016,08,24,16,06,26.60
2016,08,24,16,07,26.60
2016,08,24,16,08,26.60
2016,08,24,16,09,26.60
2016,08,24,16,10,26.60
2016,08,24,16,11,26.70
2016,08,24,16,12,26.80
2016,08,24,16,13,26.80
2016,08,24,16,14,26.80
2016,08,24,16,15,26.80
2016,08,24,16,16,26.90
2016,08,24,16,17,26.90
2016,08,24,16,18,27.00
2016,08,24,16,19,27.10
2016,08,24,16,20,27.10
2016,08,24,16,21,27.20
2016,08,24,16,22,27.10
2016,08,24,16,23,27.10
2016,08,24,16,24,27.00
2016,08,24,16,25,26.90
2016,08,24,16,26,26.80
2016,08,24,16,27,26.80
2016,08,24,16,28,26.70
2016,08,24,16,29,26.70
2016,08,24,16,30,26.70
2016,08,24,16,31,26.70
2016,08,24,16,32,26.70
2016,08,24,16,33,26.70
2016,08,24,16,34,26.70
2016,08,24,16,35,26.60
2016,08,24,16,36,26.60
2016,08,24,16,37,26.60
2016,08,24,16,38,26.60
2016,08,24,16,39,26.60
2016,08,24,16,40,26.60
2016,08,24,16,41,26.60
2016,08,24,16,42,26.60
2016,08,24,16,43,26.60
2016,08,24,16,44,26.60
2016,08,24,16,45,26.60
2016,08,24,16,46,26.60
2016,08,24,16,47,26.60
2016,08,24,16,48,26.70
2016,08,24,16,49,26.80
2016,08,24,16,50,26.70
2016,08,24,16,51,26.70
2016,08,24,16,52,26.80
2016,08,24,16,53,26.80
2016,08,24,16,54,26.90
2016,08,24,16,55,27.00
2016,08,24,16,56,27.10
2016,08,24,16,57,27.20
2016,08,24,16,58,27.30
2016,08,24,16,59,27.30
2016,08,24,17,00,27.30
2016,08,24,17,01,27.30
2016,08,24,17,02,27.30
2016,08,24,17,03,27.40
2016,08,24,17,04,27.40
2016,08,24,17,05,27.50
2016,08,24,17,06,27.60
2016,08,24,17,07,27.70
2016,08,24,17,08,27.80
2016,08,24,17,09,27.80
2016,08,24,17,10,27.80
2016,08,24,17,11,27.70
2016,08,24,17,12,27.50
2016,08,24,17,13,27.40
2016,08,24,17,14,27.30
2016,08,24,17,15,27.20
2016,08,24,17,16,27.10
2016,08,24,17,17,27.00
2016,08,24,17,18,26.90
2016,08,24,17,19,26.80